Mitchell, SD

7:15 PM CST on November 20, 2017 (GMT -0600)
Mitchell Municipal

Weather History for KMHE - May, 2014

Change the Weather History Date:

Sunday, May 11, 2014

  Actual Average Record
Temperature  
Mean Temperature 53 °F 58 °F  
Max Temperature 58 °F 70 °F 96 °F (1906)
Min Temperature 47 °F 46 °F 21 °F (1946)
Degree Days  
Heating Degree Days 12 8  
Month to date heating degree days 125 102  
Since 1 July heating degree days 7648 7102  
Cooling Degree Days 0 1  
Month to date cooling degree days 0 8  
Year to date cooling degree days 0 10  
Growing Degree Days 2 (Base 50)    
Moisture  
Dew Point 47 °F    
Average Humidity 80    
Maximum Humidity 93    
Minimum Humidity 66    
Precipitation  
Precipitation 0.42 in 0.07 in 1.70 in (1920)
Month to date precipitation 0.77 0.87  
Year to date precipitation 2.84 4.67  
Snow  
Snow 0.00 in - 2.50 in (1905)
Month to date snowfall 0.0  
Since 1 July snowfall 30.8  
Snow Depth 0.00 in    
Sea Level Pressure  
Sea Level Pressure 29.86 in    
Wind  
Wind Speed 15 mph (NNW)    
Max Wind Speed 30 mph    
Max Gust Speed 38 mph    
Visibility 8 miles    
Events Rain , Thunderstorm    
T = Trace of Precipitation, MM = Missing Value Source: NWS Daily Summary

Daily Weather History Graph

Daily Weather History Graph

Search for Another Location

Airport or City:

Trip Planner

Search our weather history database for the weather conditions in past years. The results will help you decide how hot, cold, wet, or windy it might be!

Date:

Astronomy

May. 11, 2014 Rise Set
Actual Time 6:11 AM CDT 8:46 PM CDT
Civil Twilight 5:38 AM CDT 9:19 PM CDT
Nautical Twilight 4:57 AM CDT 10:00 PM CDT
Astronomical Twilight 4:10 AM CDT 10:47 PM CDT
Moon 5:38 PM CDT (5/11) 4:24 AM CDT (5/11)
Length of Visible Light 15h 40m
Length of Day
14h 35m
Waxing Gibbous, 89% of the Moon is Illuminated
May 11
Waxing Gibbous
May 14
Full
May 21
Last Quarter
May 28
New
Jun 5
First Quarter

Hourly Weather History & Observations

Time (CDT) Temp. Dew Point Humidity Pressure Visibility Wind Dir Wind Speed Gust Speed Precip Events Conditions
12:53 AM 53.1 °F 43.0 °F 69% 29.82 in 10.0 mi Calm Calm - N/A   Clear
1:53 AM 52.0 °F 43.0 °F 71% 29.84 in 10.0 mi Calm Calm - N/A   Clear
2:53 AM 54.0 °F 43.0 °F 66% 29.85 in 10.0 mi Calm Calm - N/A   Clear
3:53 AM 53.1 °F 44.1 °F 71% 29.89 in 10.0 mi West 4.6 mph - N/A   Partly Cloudy
4:53 AM 53.1 °F 44.1 °F 71% 29.90 in 10.0 mi WNW 6.9 mph - N/A   Overcast
5:53 AM 51.1 °F 44.1 °F 77% 29.87 in 10.0 mi NW 9.2 mph - N/A   Overcast
6:53 AM 50.0 °F 44.1 °F 80% 29.87 in 10.0 mi NW 11.5 mph - N/A   Overcast
7:53 AM 50.0 °F 45.0 °F 83% 29.91 in 10.0 mi NW 9.2 mph - 0.00 in Rain Light Rain
8:53 AM 50.0 °F 46.0 °F 86% 29.93 in 10.0 mi NNW 8.1 mph - 0.01 in Rain Light Rain
9:53 AM 51.1 °F 46.9 °F 86% 29.92 in 10.0 mi NNW 9.2 mph - 0.00 in   Overcast
10:53 AM 54.0 °F 48.0 °F 80% 29.91 in 10.0 mi North 16.1 mph - N/A   Mostly Cloudy
11:23 AM 55.0 °F 48.0 °F 77% 29.90 in 10.0 mi North 17.3 mph - N/A   Mostly Cloudy
11:53 AM 55.9 °F 48.0 °F 75% 29.90 in 10.0 mi NNW 15.0 mph - N/A   Overcast
1:00 PM 57.0 °F 46.9 °F 69% 29.87 in 10.0 mi North 18.4 mph - N/A   Mostly Cloudy
1:53 PM 55.0 °F 48.9 °F 80% 29.88 in 10.0 mi North 15.0 mph - 0.01 in Rain Light Rain
2:36 PM 55.0 °F 48.9 °F 80% 29.86 in 3.0 mi North 11.5 mph - 0.01 in Rain , Thunderstorm Light Rain
2:53 PM 55.0 °F 51.1 °F 86% 29.86 in 6.0 mi North 12.7 mph - 0.04 in Rain Light Rain
4:39 PM 54.0 °F 51.1 °F 90% 29.81 in 10.0 mi North 18.4 mph - 0.01 in Rain , Thunderstorm Light Rain
4:53 PM 53.1 °F 50.0 °F 89% 29.84 in 4.0 mi North 18.4 mph 24.2 mph 0.06 in Rain , Thunderstorm Heavy Thunderstorms and Rain
5:08 PM 53.1 °F 50.0 °F 89% 29.83 in 5.0 mi North 16.1 mph - 0.02 in Rain , Thunderstorm Light Rain
5:16 PM 53.1 °F 50.0 °F 89% 29.84 in 6.0 mi North 18.4 mph - 0.03 in Rain Light Rain
5:26 PM 52.0 °F 50.0 °F 93% 29.84 in 6.0 mi NNW 21.9 mph - 0.04 in Rain Light Rain
5:53 PM 52.0 °F 50.0 °F 93% 29.86 in 2.5 mi NNW 20.7 mph - 0.10 in Rain Rain
6:01 PM 51.1 °F 48.9 °F 92% 29.84 in 3.0 mi NNW 23.0 mph 29.9 mph 0.01 in Rain Light Rain
6:43 PM 51.1 °F 48.0 °F 89% 29.81 in 6.0 mi North 26.5 mph 35.7 mph 0.06 in Rain Light Rain
6:53 PM 51.1 °F 48.0 °F 89% 29.84 in 6.0 mi North 26.5 mph 34.5 mph 0.06 in Rain Light Rain
7:00 PM 50.0 °F 48.0 °F 93% 29.82 in 9.0 mi North 27.6 mph 34.5 mph 0.00 in Rain Light Rain
7:07 PM 50.0 °F 48.0 °F 93% 29.81 in 10.0 mi North 26.5 mph 34.5 mph 0.00 in Rain Light Rain
7:53 PM 50.0 °F 48.0 °F 93% 29.84 in 10.0 mi North 23.0 mph 33.4 mph 0.00 in   Overcast
8:53 PM 48.9 °F 46.9 °F 93% 29.86 in 6.0 mi North 23.0 mph 29.9 mph 0.06 in Rain Light Rain
9:03 PM 48.0 °F 46.9 °F 96% 29.87 in 4.0 mi North 19.6 mph 29.9 mph 0.04 in Rain , Thunderstorm Rain
9:22 PM 48.0 °F 46.0 °F 93% 29.87 in 10.0 mi North 21.9 mph 28.8 mph 0.04 in Rain Light Rain
9:53 PM 48.0 °F 46.0 °F 93% 29.87 in 10.0 mi North 19.6 mph 28.8 mph 0.06 in Rain Light Rain
10:53 PM 48.0 °F 46.0 °F 93% 29.88 in 10.0 mi NNW 23.0 mph 32.2 mph 0.00 in   Overcast
11:53 PM 46.9 °F 45.0 °F 93% 29.88 in 10.0 mi NNW 21.9 mph 31.1 mph N/A   Overcast